Location: *
(28.3744°N, 81.5492°W)
Time: 03:19:23
(UTC+00:00)

MOS 1 - Pass Details

Date: 15 June 2025
Orbit: 876 x 890 km, 98.9° (Epoch: 11 July)

Event Time Altitude Azimuth Distance (km) Brightness Sun altitude
Exits shadow 01:58:00 27° 154° (SSE) 1,642 5.2 -17.9°
Maximum altitude 02:01:13 72° 75° (ENE) 929 4.2 -18.4°
Drops below altitude 10° 02:06:51 10° 352° (N) 2,544 7.4 -19.4°
Sets 02:09:15 0° 351° (N) 3,483 8.2 -19.8°
